#timestamp,LO_Frequency,Hit,StdDev 
1598688015.2,286046998.3,N
1598688035.1,286047001.1,N
1598688036.0,286047001.1,N
1598688055.8,286047001.2,N
1598688075.7,286047000.3,N
1598688095.5,286047000.5,N
1598688115.3,286047002.8,N
1598688135.2,286047002.4,N
1598688155.0,286047002.4,N
1598688155.9,286047002.4,N
1598688175.8,286047002.6,N
1598688195.6,286047002.8,N
1598688215.4,286046999.7,N
1598688235.3,286046999.7,N
1598688255.1,286047002.4,N
1598688275.8,286047002.5,N
1598688295.7,286047002.0,N
1598688315.5,286047002.1,N
1598688335.4,286047001.9,N
1598688355.2,286047001.8,N
1598688375.0,286047001.8,N
1598688375.9,286047001.8,N
1598688395.8,286047004.0,N
1598688415.6,286047001.4,N
1598688435.5,286047004.0,N
1598688455.3,286047004.0,N
1598688475.1,286047004.0,N
1598688495.9,286047004.2,N
1598688515.7,286047003.7,N
1598688535.5,286047004.2,N
1598688555.4,286047004.0,N
1598688575.2,286047003.2,N
1598688595.1,286047003.4,N
1598688596.0,286047003.4,N
1598688615.8,286047003.3,N
1598688635.6,286047003.3,N
1598688655.5,286047003.3,N
1598688675.3,286047005.9,Y
1598688695.1,286047001.5,P
1598688715.9,286047001.9,P
1598688735.7,286047001.5,N
1598688755.6,286047001.9,Y
1598688775.4,286047002.4,P
1598688795.2,286047000.1,N
1598688815.1,286047000.2,N
1598688816.0,286047000.2,N
1598688835.8,286046999.8,N
1598688855.7,286047002.3,N
1598688875.5,286047002.5,N
1598688895.3,286047002.6,N
1598688915.2,286047002.1,N
1598688935.0,286047002.0,N
1598688935.9,286047002.0,N
1598688955.7,286047001.9,N
1598688975.6,286047001.6,N
1598688995.4,286047001.8,N
1598689015.3,286047001.8,N
1598689035.1,286047002.0,N
1598689036.0,286047002.0,N
1598689055.8,286047001.7,N
1598689075.7,286047001.3,N
1598689095.5,286047003.9,Y
1598689115.4,286047002.5,P
1598689135.2,286047002.6,P
1598689155.0,286047002.1,P
1598689155.9,286047002.1,Y
1598689175.8,286047001.1,P
1598689195.6,286047000.6,N
1598689215.4,286046999.9,N
1598689235.3,286047000.2,N
1598689255.1,286046999.8,N
1598689275.9,286046999.7,N
1598689295.7,286047002.2,N
1598689315.5,286046999.7,N
1598689335.4,286047002.7,N
1598689355.2,286047002.2,N
1598689375.0,286047001.6,N
1598689375.9,286047001.6,N
1598689395.8,286047002.2,N
1598689415.6,286047004.4,Y
1598689435.5,286047002.1,P
1598689455.3,286047002.5,P
1598689475.1,286047002.7,P
1598689495.9,286047002.2,Y
1598689515.7,286047000.0,P
1598689535.6,286047000.4,N
1598689555.4,286047000.5,N
1598689575.2,286046999.9,N
1598689595.1,286047000.2,N
1598689596.0,286047000.2,N
1598689615.8,286046999.7,N
1598689635.6,286047002.8,Y
1598689655.5,286047000.2,P
1598689675.3,286047000.0,N
1598689695.2,286047000.9,P
1598689715.9,286046999.9,N
1598689735.7,286047002.4,Y
1598689755.6,286047002.3,P
1598689775.4,286047002.6,N
1598689795.2,286047002.5,N
1598689815.1,286047002.6,N
1598689816.0,286047002.6,N
1598689835.8,286047002.1,N
1598689855.7,286046999.7,N
1598689875.5,286047002.5,N
1598689895.3,286047002.4,N
1598689915.2,286047002.4,N
1598689935.0,286047002.7,N
1598689935.9,286047002.7,N
1598689955.7,286047002.1,N
1598689975.6,286047002.3,N
1598689995.4,286047002.0,N
1598690015.3,286047002.3,N
1598690035.1,286047001.6,N
1598690036.0,286047001.6,N
1598690055.8,286047002.3,N
1598690075.7,286047002.5,Y
1598690095.5,286047000.7,P
1598690115.3,286047001.0,N
1598690135.2,286047000.9,N
1598690155.0,286047001.0,N
1598690155.9,286047001.0,N
1598690175.8,286047000.7,N
1598690195.6,286046999.9,N
1598690215.4,286047001.0,N
1598690235.3,286047000.9,N
1598690255.1,286047000.4,N
1598690275.8,286047000.7,N
1598690295.7,286047000.7,N
1598690315.5,286047001.0,N
1598690335.4,286047000.6,N
1598690355.2,286047000.6,N
1598690375.0,286047000.8,N
1598690375.9,286047000.8,N
1598690395.8,286047001.0,N
1598690415.6,286046998.1,Y
1598690435.5,286046998.4,P
1598690455.3,286046998.9,N
1598690475.1,286046998.9,N
1598690495.9,286046998.4,N
1598690515.7,286046998.7,N
1598690535.5,286046999.0,N
1598690555.4,286046998.8,N
1598690575.2,286046998.3,N
1598690595.0,286046998.3,N
1598690596.0,286046998.3,N
1598690615.8,286046998.7,N
1598690635.6,286046998.9,N
1598690655.5,286046998.4,N
1598690675.3,286046998.8,N
1598690695.1,286046999.0,N
1598690715.9,286046999.3,N
1598690735.7,286046998.8,N
1598690755.5,286046998.8,N
1598690775.4,286046998.7,N
1598690795.2,286046998.6,N
1598690815.1,286046998.6,N
1598690816.0,286046998.6,N
1598690835.8,286046998.4,Y
1598690855.6,286047000.5,P
1598690875.5,286047000.4,N
1598690895.3,286047000.0,N
1598690915.2,286047000.4,N
1598690935.9,286047000.4,N
1598690955.7,286047000.4,N
1598690975.6,286047002.8,Y
1598690995.4,286047000.5,P
1598691015.2,286047000.4,N
1598691035.1,286047001.0,P
1598691036.0,286047001.0,Y
1598691055.8,286046998.2,P
1598691075.7,286047000.9,N
1598691095.5,286047001.1,N
1598691115.3,286047000.4,N
1598691135.2,286047001.2,N
1598691155.0,286047001.1,N
1598691155.9,286047001.1,N
1598691175.8,286047000.6,N
1598691195.6,286047001.2,N
1598691215.4,286046998.6,N
1598691235.3,286047000.7,N
1598691255.1,286047001.0,N
1598691275.8,286046998.2,N
1598691295.7,286046998.1,N
1598691315.5,286046998.1,N
1598691335.4,286047000.6,N
1598691355.2,286046998.2,N
1598691375.0,286046998.2,N
1598691375.9,286046998.2,N
1598691395.8,286047000.7,N
1598691415.6,286046998.6,N
1598691435.4,286046998.2,N
1598691455.3,286047001.2,N
1598691475.1,286047001.2,N
1598691495.9,286046998.5,N
1598691515.7,286046998.7,N
1598691535.5,286046998.1,N
1598691555.4,286046998.2,N
1598691575.2,286046998.2,N
1598691595.0,286046998.5,N
1598691595.9,286046998.5,N
